Home > Weather > Hilo > Past weeks

Flag for USA Past Weather in Hilo, Hawaii, USA — Yesterday and Last 2 Weeks

Now
74 °F

Passing clouds.


Feels Like: 74 °F
Forecast: 71 / 81 °F
Wind: No wind

Location: Hilo International Airport

Current Time: Jun 25, 2016 at 7:55:39 AM

Latest Report: Jun 25, 2016 at 6:53 AM


Visibility: 10 mi

Pressure: 30.02 "Hg

Humidity: 82%

Dew Point: 68 °F

Location of HiloLocation

Past Weather in Hilo — Graph

°F

Hilo Temperature Yesterday

Maximum temperature yesterday: 84 °F (at 4:04 PM)
Minimum temperature yesterday: 69 °F (at 5:53 AM)
Average temperature yesterday: 77 °F

High & Low Weather Summary for the Past Weeks

 TemperatureHumidityPressure
High85 °F (Jun 12, 11:53 AM)100% (Jun 11, 11:06 PM)30.20 "Hg (Jun 11, 11:06 PM)
Low67 °F (Jun 20, 4:53 AM)55% (Jun 20, 1:53 PM)29.97 "Hg (Jun 18, 4:53 PM)
Average76 °F83%30.06 "Hg
* Reported Jun 10 5:53 AM — Jun 25 5:53 AM, Hilo, Weather by CustomWeather, © 2016

Note: Actual official high and low records may vary slightly from our data, if they occured in-between our weather recording intervals... More about our weather records

Advertising

Hilo Weather History for the Previous 24 Hours

Scroll right to see more
 ConditionsComfort  
Time TempWeatherWind HumidityBarometerVisibility
5:53 AM
Sat, Jun 25
71 °FScattered clouds.3 mph87%30.01 "Hg10 mi
4:53 AM72 °FPartly cloudy.7 mph78%30.01 "Hg10 mi
3:53 AM71 °FPassing clouds.8 mph87%30.01 "Hg10 mi
2:53 AM72 °FLight rain. Mostly cloudy.5 mph91%30.02 "Hg10 mi
1:53 AM73 °FLight rain. Mostly cloudy.3 mph88%30.03 "Hg10 mi
1:09 AM73 °FPartly cloudy.7 mph94%30.04 "Hg10 mi
12:53 AM72 °FLight rain. Mostly cloudy.No wind91%30.04 "Hg7 mi
12:34 AM72 °FLight rain. Overcast.No wind83%30.06 "Hg7 mi
11:53 PM
Fri, Jun 24
73 °FLight rain. Partly cloudy.8 mph90%30.06 "Hg10 mi
11:30 PM73 °FPassing clouds.No wind89%30.07 "Hg10 mi
10:53 PM73 °FPassing clouds.6 mph84%30.07 "Hg10 mi
10:34 PM73 °FPartly cloudy.5 mph89%30.08 "Hg10 mi
10:10 PM75 °FOvercast.3 mph83%30.08 "Hg10 mi
9:53 PM75 °FPartly cloudy.6 mph85%30.07 "Hg10 mi
8:53 PM77 °FPassing clouds.5 mph82%30.06 "Hg10 mi
7:53 PM78 °FClear.3 mph76%30.04 "Hg10 mi
6:53 PM79 °FSunny.5 mph77%30.02 "Hg10 mi
5:53 PM80 °FPassing clouds.7 mph74%30.01 "Hg10 mi
5:10 PM81 °FPassing clouds.7 mph74%30.01 "Hg10 mi
4:53 PM81 °FPassing clouds.12 mph72%30.00 "Hg10 mi
4:33 PM82 °FBroken clouds.10 mph66%30.01 "Hg10 mi
4:04 PM84 °FScattered clouds.10 mph62%30.01 "Hg10 mi
3:53 PM83 °FScattered clouds.8 mph65%30.00 "Hg10 mi
2:53 PM83 °FPassing clouds.9 mph65%30.01 "Hg10 mi
1:53 PM83 °FPassing clouds.9 mph68%30.01 "Hg10 mi
12:53 PM84 °FScattered clouds.13 mph65%30.02 "Hg10 mi
11:53 AM83 °FScattered clouds.10 mph63%30.03 "Hg10 mi
10:53 AM84 °FScattered clouds.10 mph63%30.04 "Hg10 mi
9:53 AM82 °FScattered clouds.9 mph67%30.05 "Hg10 mi
8:53 AM81 °FScattered clouds.3 mph69%30.05 "Hg10 mi
7:53 AM78 °FPassing clouds.3 mph71%30.05 "Hg10 mi
Weather by CustomWeather, © 2016

See weather overviewHow to use our weather pages